Price, UT

4:24 AM MST on February 24, 2017 (GMT -0700)
Carbon County

Weather History for KPUC - October, 2013

Change the Weather History Date:

Tuesday, October 29, 2013

  Actual Average Record
Temperature  
Mean Temperature 38 °F -  
Max Temperature 45 °F 51 °F 75 °F (2003)
Min Temperature 32 °F 30 °F 20 °F (1991)
Degree Days  
Heating Degree Days 26    
Moisture  
Dew Point 32 °F    
Average Humidity 87    
Maximum Humidity 100    
Minimum Humidity 55    
Precipitation  
Precipitation 0.24 in - - ()
Sea Level Pressure  
Sea Level Pressure 29.87 in    
Wind  
Wind Speed 5 mph (East)    
Max Wind Speed 9 mph    
Max Gust Speed 16 mph    
Visibility 6 miles    
Events Fog , Rain , Snow    
Averages and records for this station are not official NWS values.
T = Trace of Precipitation, MM = Missing Value Source: NWS Daily Summary

Daily Weather History Graph

Daily Weather History Graph

Search for Another Location

Airport or City:

Trip Planner

Search our weather history database for the weather conditions in past years. The results will help you decide how hot, cold, wet, or windy it might be!

Date:

Astronomy

Oct. 29, 2013 Rise Set
Actual Time 7:48 AM MDT 6:24 PM MDT
Civil Twilight 7:20 AM MDT 6:52 PM MDT
Nautical Twilight 6:48 AM MDT 7:23 PM MDT
Astronomical Twilight 6:17 AM MDT 7:55 PM MDT
Moon 2:42 AM MDT (10/29) 3:39 PM MDT (10/29)
Length of Visible Light 11h 31m
Length of Day
10h 36m
Waning Crescent, 24% of the Moon is Illuminated
Oct 29
Waning Crescent
Nov 3
New
Nov 9
First Quarter
Nov 17
Full
Nov 25
Last Quarter

Hourly Weather History & Observations

Time (MDT) Temp. Windchill Dew Point Humidity Pressure Visibility Wind Dir Wind Speed Gust Speed Precip Events Conditions
12:09 AM 35.6 °F 29.9 °F 32.0 °F 87% 29.81 in 2.5 mi WNW 6.9 mph 16.1 mph 0.05 in Snow Light Snow
12:26 AM 33.8 °F 29.6 °F 32.0 °F 93% 29.81 in 3.0 mi North 4.6 mph - 0.07 in Snow Light Snow
12:53 AM 35.1 °F 27.9 °F 33.1 °F 92% 29.75 in 8.0 mi North 9.2 mph - 0.09 in Rain Light Rain
1:33 AM 35.6 °F 29.9 °F 32.0 °F 87% 29.83 in 3.0 mi NW 6.9 mph - 0.07 in Snow Light Snow
1:42 AM 33.8 °F 27.0 °F 32.0 °F 93% 29.81 in 2.5 mi NNW 8.1 mph - 0.09 in Snow Light Snow
1:47 AM 33.8 °F 27.7 °F 32.0 °F 93% 29.80 in 1.8 mi NNW 6.9 mph - 0.09 in Snow Light Snow
1:53 AM 34.0 °F 27.2 °F 32.0 °F 92% 29.76 in 2.0 mi NNW 8.1 mph - 0.10 in Snow Light Snow
2:01 AM 33.8 °F 29.6 °F 32.0 °F 93% 29.82 in 4.0 mi North 4.6 mph - 0.01 in Snow Light Snow
2:39 AM 35.6 °F 31.7 °F 30.2 °F 81% 29.84 in 2.5 mi North 4.6 mph - 0.03 in Snow Light Snow
2:48 AM 33.8 °F 27.7 °F 30.2 °F 87% 29.83 in 1.5 mi NNE 6.9 mph - 0.04 in Snow Light Snow
2:53 AM 34.0 °F 27.2 °F 30.9 °F 89% 29.78 in 2.0 mi NNE 8.1 mph - 0.04 in Snow Light Snow
2:56 AM 33.8 °F 26.4 °F 30.2 °F 87% 29.82 in 3.0 mi NNE 9.2 mph - 0.00 in Snow Light Snow
3:14 AM 35.6 °F 30.7 °F 32.0 °F 87% 29.81 in 10.0 mi NNE 5.8 mph - 0.00 in   Overcast
3:40 AM 33.8 °F 27.7 °F 33.8 °F 100% 29.81 in 1.5 mi WSW 6.9 mph - 0.00 in   Overcast
3:48 AM 33.8 °F 30.8 °F 32.0 °F 93% 29.81 in 0.2 mi SSW 3.5 mph - 0.00 in Fog , Snow Light Snow
3:53 AM 33.1 °F 28.7 °F 32.0 °F 96% 29.78 in 0.2 mi SSW 4.6 mph - 0.00 in Fog , Snow Light Snow
4:01 AM 33.8 °F 30.8 °F 32.0 °F 93% 29.81 in 0.2 mi WSW 3.5 mph - 0.00 in Fog , Snow Light Snow
4:08 AM 33.8 °F - 32.0 °F 93% 29.81 in 0.2 mi Calm Calm - 0.00 in Fog , Snow Light Snow
4:26 AM 33.8 °F 27.7 °F 32.0 °F 93% 29.81 in 0.8 mi ESE 6.9 mph - 0.00 in Snow Light Snow
4:28 AM 33.8 °F 27.7 °F 32.0 °F 93% 29.81 in 1.0 mi ESE 6.9 mph - 0.00 in Snow Light Snow
4:32 AM 33.8 °F 28.6 °F 32.0 °F 93% 29.81 in 2.0 mi ESE 5.8 mph - 0.00 in Snow Light Snow
4:40 AM 33.8 °F 30.8 °F 32.0 °F 93% 29.81 in 5.0 mi ESE 3.5 mph - 0.00 in   Overcast
4:47 AM 33.8 °F 30.8 °F 32.0 °F 93% 29.81 in 2.5 mi ESE 3.5 mph - 0.00 in   Overcast
4:48 AM 33.1 °F 30.0 °F 32.0 °F 96% 29.78 in 2.0 mi SE 3.5 mph - 0.00 in   Overcast
4:54 AM 33.8 °F 28.6 °F 32.0 °F 93% 29.82 in 0.8 mi SSE 5.8 mph - N/A   Overcast
5:14 AM 33.8 °F 29.6 °F 32.0 °F 93% 29.83 in 1.8 mi SE 4.6 mph - N/A   Overcast
5:16 AM 33.8 °F 28.6 °F 32.0 °F 93% 29.83 in 3.0 mi SE 5.8 mph - N/A   Overcast
5:37 AM 33.8 °F 28.6 °F 32.0 °F 93% 29.84 in 2.5 mi SSE 5.8 mph - N/A   Overcast
5:46 AM 33.8 °F 30.8 °F 32.0 °F 93% 29.83 in 1.2 mi ESE 3.5 mph - 0.00 in Snow Light Snow
5:53 AM 34.0 °F 31.0 °F 32.0 °F 92% 29.78 in 1.8 mi ENE 3.5 mph - 0.00 in Snow Light Snow
5:59 AM 33.8 °F - 32.0 °F 93% 29.83 in 3.0 mi Calm Calm - 0.01 in Snow Light Snow
6:14 AM 33.8 °F 29.6 °F 32.0 °F 93% 29.84 in 0.8 mi SW 4.6 mph - 0.01 in Snow Light Snow
6:53 AM 33.1 °F - 32.0 °F 96% 29.84 in 0.2 mi Calm Calm - 0.01 in Fog Fog
7:25 AM 33.8 °F - 33.8 °F 100% 29.87 in 2.0 mi Calm Calm - N/A   Overcast
7:33 AM 33.8 °F - 33.8 °F 100% 29.87 in 6.0 mi Calm Calm - N/A   Overcast
7:53 AM 34.0 °F - 32.0 °F 92% 29.87 in 8.0 mi Calm Calm - N/A   Overcast
8:20 AM 35.6 °F 31.7 °F 32.0 °F 87% 29.88 in 10.0 mi NE 4.6 mph - N/A   Mostly Cloudy
8:30 AM 35.6 °F 30.7 °F 33.8 °F 93% 29.88 in 10.0 mi NNE 5.8 mph - N/A   Mostly Cloudy
8:49 AM 35.6 °F - 33.8 °F 93% 29.90 in 10.0 mi Calm Calm - N/A   Mostly Cloudy
8:53 AM 35.1 °F - 32.0 °F 89% 29.91 in 10.0 mi Calm Calm - N/A   Mostly Cloudy
9:02 AM 35.6 °F - 33.8 °F 93% 29.92 in 10.0 mi Calm Calm - N/A   Overcast
9:53 AM 36.0 °F - 34.0 °F 93% 29.97 in 10.0 mi Calm Calm - N/A   Mostly Cloudy
10:32 AM 37.4 °F - 33.8 °F 87% 29.93 in 10.0 mi Calm Calm - N/A   Mostly Cloudy
10:53 AM 37.9 °F 33.5 °F 34.0 °F 86% 29.96 in 10.0 mi SE 5.8 mph - N/A   Scattered Clouds
11:10 AM 39.2 °F 35.9 °F 33.8 °F 81% 29.93 in 10.0 mi ESE 4.6 mph - N/A   Scattered Clouds
11:18 AM 39.2 °F 34.2 °F 35.6 °F 87% 29.93 in 10.0 mi SSE 6.9 mph - N/A   Mostly Cloudy
11:53 AM 41.0 °F 38.0 °F 34.0 °F 76% 29.96 in 10.0 mi Variable 4.6 mph - N/A   Mostly Cloudy
12:22 PM 41.0 °F 35.8 °F 32.0 °F 70% 29.94 in 10.0 mi SSW 8.1 mph - N/A   Mostly Cloudy
12:42 PM 42.8 °F 40.1 °F 30.2 °F 61% 29.93 in 10.0 mi SSW 4.6 mph - N/A   Mostly Cloudy
12:53 PM 42.1 °F - 30.9 °F 65% 29.96 in 10.0 mi Calm Calm - N/A   Mostly Cloudy
1:42 PM 42.8 °F 39.3 °F 32.0 °F 66% 29.91 in 10.0 mi SSE 5.8 mph - N/A   Overcast
1:53 PM 43.0 °F 39.5 °F 32.0 °F 65% 29.94 in 10.0 mi Variable 5.8 mph - N/A   Overcast
2:53 PM 44.1 °F - 30.0 °F 58% 29.91 in 10.0 mi Calm Calm - N/A   Overcast
3:53 PM 44.1 °F 41.5 °F 28.9 °F 55% 29.91 in 10.0 mi East 4.6 mph - N/A   Overcast
4:53 PM 37.9 °F 32.1 °F 33.1 °F 83% 29.94 in 10.0 mi West 8.1 mph - 0.00 in   Overcast
5:53 PM 41.0 °F 38.0 °F 32.0 °F 70% 29.91 in 10.0 mi NNW 4.6 mph - N/A   Overcast
6:53 PM 36.0 °F 30.3 °F 33.1 °F 89% 29.95 in 10.0 mi SSE 6.9 mph - N/A   Mostly Cloudy
7:53 PM 36.0 °F 30.3 °F 33.1 °F 89% 29.94 in 10.0 mi North 6.9 mph - N/A   Overcast
8:53 PM 36.0 °F 33.3 °F 32.0 °F 86% 29.94 in 10.0 mi NE 3.5 mph - N/A   Clear
9:53 PM 34.0 °F - 28.9 °F 82% 29.97 in 10.0 mi Calm Calm - N/A   Partly Cloudy
10:53 PM 34.0 °F 28.8 °F 28.0 °F 79% 29.98 in 10.0 mi North 5.8 mph - N/A   Clear
11:53 PM 32.0 °F - 27.0 °F 82% 29.98 in 10.0 mi Calm Calm - N/A   Clear